DT_LEITURA;HR_LEITURA;MED-PressaoAtm[hPa];VAL-TempExt[oC];VAL-UmidExt[%UR];VAL-TempInt[oC];VAL-UmidInt[%UR];Dir-Vento[grau];Vel-Vento[m/s];Precipitação[mm/h]
27/08/2026;00:00:00;1011,9;-35,2;0;28,9;69;145;1,8;0,0
27/08/2026;00:05:00;1011,9;-35,2;0;28,9;69;151;1,4;0,0
27/08/2026;00:10:00;1011,8;-35,2;0;28,9;70;133;1,4;0,0
27/08/2026;00:15:00;1011,7;-35,2;0;28,8;70;139;1,8;0,0
27/08/2026;00:20:00;1011,6;-35,3;0;28,8;71;143;1,4;0,0
27/08/2026;00:25:00;1011,6;-35,3;0;28,7;71;144;1,1;0,0
27/08/2026;00:30:00;1011,6;-35,4;0;28,7;71;142;1,4;0,0
27/08/2026;00:35:00;1011,5;-35,4;0;28,7;72;153;1,3;0,0
27/08/2026;00:40:00;1011,4;-35,4;0;28,7;72;166;0,9;0,0
27/08/2026;00:45:00;1011,4;-35,4;0;28,7;72;280;0,6;0,0
27/08/2026;00:50:00;1011,3;-35,5;0;28,7;72;337;0,6;0,0
27/08/2026;00:55:00;1011,2;-35,5;0;28,7;72;274;0,5;0,0
27/08/2026;01:00:00;1011,2;-35,7;0;28,7;72;220;0,5;0,0
27/08/2026;01:05:00;1011,1;-35,8;0;28,7;72;208;0,4;0,0
27/08/2026;01:10:00;1011,1;-35,7;0;28,7;72;269;0,3;0,0
27/08/2026;01:15:00;1011,0;-35,8;0;28,7;71;93;0,5;0,0
27/08/2026;01:20:00;1011,0;-35,8;0;28,7;71;311;0,5;0,0
27/08/2026;01:25:00;1010,9;-35,8;0;28,7;71;306;0,4;0,0
27/08/2026;01:30:00;1010,8;-35,9;0;28,6;72;300;0,5;0,0
27/08/2026;01:35:00;1010,8;-35,9;0;28,6;72;338;0,5;0,0
27/08/2026;01:40:00;1010,7;-36,0;0;28,5;72;282;0,5;0,0
27/08/2026;01:45:00;1010,6;-36,0;0;28,5;72;329;0,7;0,0
27/08/2026;01:50:00;1010,6;-36,0;0;28,4;72;344;0,6;0,0
27/08/2026;01:55:00;1010,5;-36,1;0;28,4;72;237;0,6;0,0
27/08/2026;02:00:00;1010,5;-36,1;0;28,3;73;270;0,6;0,0
27/08/2026;02:05:00;1010,5;-36,1;0;28,2;73;317;0,6;0,0
27/08/2026;02:10:00;1010,4;-36,2;0;28,2;73;350;0,7;0,0
27/08/2026;02:15:00;1010,4;-36,2;0;28,1;73;354;0,7;0,0
27/08/2026;02:20:00;1010,3;-36,2;0;28,0;74;326;0,7;0,0
27/08/2026;02:25:00;1010,2;-36,3;0;28,0;74;341;0,7;0,0
27/08/2026;02:30:00;1010,1;-36,3;0;27,9;74;342;0,6;0,0
27/08/2026;02:35:00;1010,1;-36,3;0;27,8;75;346;0,8;0,0
27/08/2026;02:40:00;1010,1;-36,3;0;27,8;75;8;0,6;0,0
27/08/2026;02:45:00;1010,2;-36,3;0;27,7;75;10;0,5;0,0
27/08/2026;02:50:00;1010,1;-36,3;0;27,7;76;29;0,5;0,0
27/08/2026;02:55:00;1010,1;-36,4;0;27,6;76;348;0,6;0,0
27/08/2026;03:00:00;1010,1;-36,4;0;27,6;76;352;0,7;0,0
27/08/2026;03:05:00;1010,0;-36,4;0;27,5;77;321;0,6;0,0
27/08/2026;03:10:00;1009,9;-36,4;0;27,5;77;9;0,6;0,0
27/08/2026;03:15:00;1009,9;-36,4;0;27,4;77;350;0,5;0,0
27/08/2026;03:20:00;1009,9;-36,5;0;27,4;77;320;0,6;0,0
27/08/2026;03:25:00;1009,9;-36,5;0;27,4;77;328;0,6;0,0
27/08/2026;03:30:00;1009,9;-36,5;0;27,3;77;324;0,6;0,0
27/08/2026;03:35:00;1009,9;-36,5;0;27,3;78;338;0,5;0,0
27/08/2026;03:40:00;1009,8;-36,5;0;27,2;78;317;0,4;0,0
27/08/2026;03:45:00;1009,8;-36,5;0;27,2;78;321;0,4;0,0
27/08/2026;03:50:00;1009,8;-36,5;0;27,2;78;348;0,6;0,0
27/08/2026;03:55:00;1009,8;-36,5;0;27,1;78;340;0,7;0,0
27/08/2026;04:00:00;1009,8;-36,6;0;27,0;79;8;0,5;0,0
27/08/2026;04:05:00;1009,8;-36,6;0;27,0;79;355;0,7;0,0
27/08/2026;04:10:00;1009,8;-36,6;0;26,9;79;359;0,7;0,0
27/08/2026;04:15:00;1009,9;-36,6;0;26,9;79;359;0,6;0,0
27/08/2026;04:20:00;1009,9;-36,6;0;26,9;79;4;0,7;0,0
27/08/2026;04:25:00;1009,8;-36,6;0;26,8;79;353;0,5;0,0
27/08/2026;04:30:00;1009,8;-36,6;0;26,8;79;351;0,6;0,0
27/08/2026;04:35:00;1009,8;-36,6;0;26,7;79;251;0,5;0,0
27/08/2026;04:40:00;1009,8;-36,6;0;26,7;79;348;0,5;0,0
27/08/2026;04:45:00;1009,8;-36,6;0;26,7;79;358;0,5;0,0
27/08/2026;04:50:00;1009,8;-36,6;0;26,7;79;15;0,4;0,0
27/08/2026;04:55:00;1009,8;-36,6;0;26,6;79;320;0,4;0,0
27/08/2026;05:00:00;1009,8;-36,6;0;26,6;79;360;0,7;0,0
27/08/2026;05:05:00;1009,8;-36,6;0;26,6;80;2;0,6;0,0
27/08/2026;05:10:00;1009,8;-36,6;0;26,5;80;341;0,6;0,0
27/08/2026;05:15:00;1009,9;-36,6;0;26,5;80;335;0,6;0,0
27/08/2026;05:20:00;1009,9;-36,6;0;26,4;80;6;0,7;0,0
27/08/2026;05:25:00;1009,9;-36,6;0;26,4;80;340;0,7;0,0
27/08/2026;05:30:00;1010,0;-36,6;0;26,4;81;340;0,7;0,0
27/08/2026;05:35:00;1010,1;-36,6;0;26,4;81;334;0,6;0,0
27/08/2026;05:40:00;1010,0;-36,6;0;26,3;81;17;0,4;0,0
27/08/2026;05:45:00;1010,1;-36,6;0;26,3;81;195;0,3;0,0
27/08/2026;05:50:00;1010,1;-36,7;0;26,4;81;2;0,4;0,0
27/08/2026;05:55:00;1010,1;-36,7;0;26,4;80;22;0,3;0,0
27/08/2026;06:00:00;1010,1;-36,7;0;26,3;81;324;0,3;0,0
27/08/2026;06:05:00;1010,1;-36,7;0;26,3;81;300;0,3;0,0
27/08/2026;06:10:00;1010,2;-36,7;0;26,4;81;202;0,5;0,0
27/08/2026;06:15:00;1010,2;-36,7;0;26,4;81;210;0,5;0,0
27/08/2026;06:20:00;1010,2;-36,7;0;26,4;81;151;0,3;0,0
27/08/2026;06:25:00;1010,3;-36,7;0;26,4;81;294;0,4;0,0
27/08/2026;06:30:00;1010,3;-36,7;0;26,4;81;350;0,5;0,0
27/08/2026;06:35:00;1010,4;-36,7;0;26,3;81;6;0,5;0,0
27/08/2026;06:40:00;1010,4;-36,7;0;26,3;81;13;0,4;0,0
27/08/2026;06:45:00;1010,4;-36,7;0;26,3;81;356;0,3;0,0
27/08/2026;06:50:00;1010,5;-36,7;0;26,3;81;19;0,4;0,0
27/08/2026;06:55:00;1010,6;-36,7;0;26,4;81;292;0,3;0,0
27/08/2026;07:00:00;1010,7;-36,6;0;26,4;81;291;0,3;0,0
27/08/2026;07:05:00;1010,8;-36,6;0;26,5;81;328;0,3;0,0
27/08/2026;07:10:00;1010,8;-36,6;0;26,5;81;202;0,3;0,0
27/08/2026;07:15:00;1010,9;-36,6;0;26,6;80;271;0,4;0,0
27/08/2026;07:20:00;1011,0;-36,6;0;26,6;80;160;0,5;0,0
27/08/2026;07:25:00;1011,0;-36,6;0;26,7;80;223;0,3;0,0
27/08/2026;07:30:00;1011,1;-36,6;0;26,8;80;192;0,3;0,0
27/08/2026;07:35:00;1011,2;-36,7;0;26,8;80;339;0,4;0,0
27/08/2026;07:40:00;1011,3;-36,6;0;26,9;80;31;0,4;0,0
27/08/2026;07:45:00;1011,4;-36,6;0;26,9;79;10;0,3;0,0
27/08/2026;07:50:00;1011,5;-36,6;0;27,0;79;327;0,2;0,0
27/08/2026;07:55:00;1011,5;-36,6;0;27,1;79;167;0,5;0,0
27/08/2026;08:00:00;1011,6;-36,6;0;27,2;79;192;0,2;0,0
27/08/2026;08:05:00;1011,7;-36,6;0;27,3;79;71;0,3;0,0
27/08/2026;08:10:00;1011,8;-36,6;0;27,4;79;165;0,4;0,0
27/08/2026;08:15:00;1011,9;-36,6;0;27,6;78;279;0,4;0,0
27/08/2026;08:20:00;1011,9;-36,5;0;27,7;78;330;0,4;0,0
27/08/2026;08:25:00;1012,0;-36,5;0;27,9;78;190;0,4;0,0
27/08/2026;08:30:00;1012,1;-36,5;0;28,1;77;165;0,6;0,0
27/08/2026;08:35:00;1012,1;-36,5;0;28,2;77;146;1,0;0,0
27/08/2026;08:40:00;1012,1;-36,5;0;28,3;77;155;0,8;0,0
27/08/2026;08:45:00;1012,2;-36,4;0;28,5;77;137;1,3;0,0
27/08/2026;08:50:00;1012,2;-36,4;0;28,6;76;135;0,7;0,0
27/08/2026;08:55:00;1012,3;-36,4;0;28,7;76;137;0,9;0,0
27/08/2026;09:00:00;1012,3;-36,3;0;28,8;76;154;0,7;0,0
27/08/2026;09:05:00;1012,3;-36,3;0;29,0;75;150;0,8;0,0
27/08/2026;09:10:00;1012,4;-36,2;0;29,1;75;140;0,9;0,0
27/08/2026;09:15:00;1012,4;-36,1;0;29,2;75;139;0,9;0,0
27/08/2026;09:20:00;1012,4;-36,1;0;29,3;74;130;1,0;0,0
27/08/2026;09:25:00;1012,4;-36,0;0;29,3;74;149;1,0;0,0
27/08/2026;09:30:00;1012,4;-35,7;0;29,6;74;139;1,1;0,0
27/08/2026;09:35:00;1012,4;-34,8;0;30,2;71;168;1,1;0,0
27/08/2026;09:40:00;1012,5;-34,2;0;30,7;69;136;1,3;0,0
27/08/2026;09:45:00;1012,5;-34,0;0;30,8;68;166;0,7;0,0
27/08/2026;09:50:00;1012,5;-33,9;0;31,0;69;157;1,4;0,0
27/08/2026;09:55:00;1012,5;-33,9;0;31,5;66;151;1,4;0,0
27/08/2026;10:00:00;1012,5;-33,9;0;31,6;65;157;1,5;0,0
27/08/2026;10:05:00;1012,5;-34,4;0;31,8;65;181;1,2;0,0
27/08/2026;10:10:00;1012,4;-34,8;0;32,2;64;189;0,9;0,0
27/08/2026;10:15:00;1012,4;-35,5;0;32,6;62;162;1,4;0,0
27/08/2026;10:20:00;1012,5;-35,9;0;32,5;61;206;1,0;0,0
27/08/2026;10:25:00;1012,5;-36,2;0;32,7;60;159;1,7;0,0
27/08/2026;10:30:00;1012,5;-36,7;0;33,0;59;138;2,0;0,0
27/08/2026;10:35:00;1012,5;-37,3;1;33,5;57;175;1,5;0,0
27/08/2026;10:40:00;1012,5;-37,8;3;33,7;55;170;1,7;0,0
27/08/2026;10:45:00;1012,5;-38,1;3;33,9;54;143;2,0;0,0
27/08/2026;10:50:00;1012,5;-38,3;3;34,2;54;150;1,7;0,0
27/08/2026;10:55:00;1012,5;-38,5;3;34,3;53;152;1,7;0,0
27/08/2026;11:00:00;1012,5;-38,5;3;34,0;54;138;1,8;0,0
27/08/2026;11:05:00;1012,5;-38,5;3;34,1;55;138;1,9;0,0
27/08/2026;11:10:00;1012,4;-38,6;3;34,5;54;150;1,6;0,0
27/08/2026;11:15:00;1012,4;-38,7;3;34,7;52;132;2,4;0,0
27/08/2026;11:20:00;1012,4;-38,8;3;35,0;51;147;1,9;0,0
27/08/2026;11:25:00;1012,3;-38,8;3;35,3;50;143;2,6;0,0
27/08/2026;11:30:00;1012,3;-38,9;3;35,4;48;168;2,0;0,0
27/08/2026;11:35:00;1012,2;-38,9;3;35,4;48;143;2,6;0,0
27/08/2026;11:40:00;1012,2;-38,9;3;35,4;48;140;2,0;0,0
27/08/2026;11:45:00;1012,2;-38,9;3;35,4;49;167;1,5;0,0
27/08/2026;11:50:00;1012,1;-38,9;3;35,5;48;149;1,7;0,0
27/08/2026;11:55:00;1012,1;-39,0;3;35,5;49;141;2,0;0,0
27/08/2026;12:00:00;1012,1;-39,0;3;35,4;48;136;2,4;0,0
27/08/2026;12:05:00;1012,0;-39,1;3;35,5;47;152;2,3;0,0
27/08/2026;12:10:00;1012,0;-39,2;3;35,7;46;155;2,1;0,0
27/08/2026;12:15:00;1012,0;-39,2;3;35,8;46;143;2,5;0,0
27/08/2026;12:20:00;1011,9;-39,2;3;35,9;47;150;1,9;0,0
27/08/2026;12:25:00;1011,8;-39,1;4;36,1;47;144;2,1;0,0
27/08/2026;12:30:00;1011,7;-39,0;4;36,3;47;143;2,0;0,0
27/08/2026;12:35:00;1011,7;-39,2;4;36,4;45;134;2,7;0,0
27/08/2026;12:40:00;1011,6;-39,2;4;36,5;45;147;2,0;0,0
27/08/2026;12:45:00;1011,5;-39,2;4;36,6;45;145;2,3;0,0
27/08/2026;12:50:00;1011,5;-39,2;4;36,7;45;176;1,5;0,0
27/08/2026;12:55:00;1011,4;-39,2;4;36,9;45;162;2,3;0,0
27/08/2026;13:00:00;1011,3;-39,1;4;37,0;44;131;2,2;0,0
27/08/2026;13:05:00;1011,3;-39,2;4;37,1;44;140;2,1;0,0
27/08/2026;13:10:00;1011,2;-39,2;4;37,3;43;135;2,5;0,0
27/08/2026;13:15:00;1011,0;-39,2;4;37,3;43;162;1,7;0,0
27/08/2026;13:20:00;1011,0;-39,2;4;37,4;43;152;2,3;0,0
27/08/2026;13:25:00;1010,9;-39,2;4;37,5;42;155;2,2;0,0
27/08/2026;13:30:00;1010,9;-39,3;4;37,6;42;154;2,1;0,0
27/08/2026;13:35:00;1010,8;-39,3;4;37,7;43;153;1,7;0,0
27/08/2026;13:40:00;1010,7;-39,2;4;37,9;42;139;2,1;0,0
27/08/2026;13:45:00;1010,7;-39,2;4;38,1;42;141;1,9;0,0
27/08/2026;13:50:00;1010,6;-39,2;4;38,3;42;142;2,2;0,0
27/08/2026;13:55:00;1010,6;-39,2;4;38,5;41;134;1,9;0,0
27/08/2026;14:00:00;1010,5;-39,2;4;38,6;40;137;2,4;0,0
27/08/2026;14:05:00;1010,4;-39,2;4;38,6;39;137;1,9;0,0
27/08/2026;14:10:00;1010,3;-39,2;4;38,8;39;132;2,3;0,0
27/08/2026;14:15:00;1010,3;-39,1;4;38,9;38;134;2,3;0,0
27/08/2026;14:20:00;1010,2;-39,2;4;39,0;37;135;2,3;0,0
27/08/2026;14:25:00;1010,1;-39,3;4;39,0;37;129;2,3;0,0
27/08/2026;14:30:00;1010,0;-39,3;4;39,0;38;136;2,0;0,0
27/08/2026;14:35:00;1010,0;-39,3;4;39,1;38;134;2,4;0,0
27/08/2026;14:40:00;1010,0;-39,3;4;39,2;38;128;2,0;0,0
27/08/2026;14:45:00;1009,9;-39,3;4;39,3;38;141;2,0;0,0
27/08/2026;14:50:00;1009,9;-39,3;4;39,4;38;138;1,8;0,0
27/08/2026;14:55:00;1009,8;-39,3;4;39,4;38;128;2,1;0,0
27/08/2026;15:00:00;1009,7;-39,2;4;39,5;38;140;1,6;0,0
27/08/2026;15:05:00;1009,7;-39,3;4;39,5;37;131;2,2;0,0
27/08/2026;15:10:00;1009,6;-39,3;4;39,4;37;148;1,7;0,0
27/08/2026;15:15:00;1009,5;-39,3;4;39,4;37;149;1,6;0,0
27/08/2026;15:20:00;1009,5;-39,3;4;39,5;37;131;2,2;0,0
27/08/2026;15:25:00;1009,5;-39,3;4;39,5;37;141;2,0;0,0
27/08/2026;15:30:00;1009,4;-39,3;4;39,5;37;133;1,9;0,0
27/08/2026;15:35:00;1009,4;-39,3;4;39,5;37;138;2,2;0,0
27/08/2026;15:40:00;1009,4;-39,3;4;39,5;38;145;1,6;0,0
27/08/2026;15:45:00;1009,4;-39,3;4;39,4;38;141;1,7;0,0
27/08/2026;15:50:00;1009,4;-39,3;4;39,4;38;135;2,3;0,0
27/08/2026;15:55:00;1009,4;-39,3;4;39,2;38;136;1,9;0,0
27/08/2026;16:00:00;1009,3;-39,2;4;39,1;39;134;2,1;0,0
27/08/2026;16:05:00;1009,2;-39,3;4;38,8;39;128;2,2;0,0
27/08/2026;16:10:00;1009,2;-39,3;4;38,6;39;127;2,2;0,0
27/08/2026;16:15:00;1009,2;-39,3;4;38,2;41;132;2,3;0,0
27/08/2026;16:20:00;1009,1;-39,3;4;37,5;43;133;2,1;0,0
27/08/2026;16:25:00;1009,1;-39,3;4;36,8;43;134;2,1;0,0
27/08/2026;16:30:00;1009,1;-39,3;4;36,1;45;140;1,8;0,0
27/08/2026;16:35:00;1009,1;-39,3;4;35,6;45;145;1,8;0,0
27/08/2026;16:40:00;1009,1;-39,2;4;35,2;46;151;1,9;0,0
27/08/2026;16:45:00;1009,1;-39,2;4;34,9;47;137;2,0;0,0
27/08/2026;16:50:00;1009,1;-39,2;4;34,6;47;134;1,8;0,0
27/08/2026;16:55:00;1009,0;-39,2;4;34,4;45;143;1,9;0,0
27/08/2026;17:00:00;1009,0;-39,2;4;34,2;45;158;1,5;0,0
27/08/2026;17:05:00;1009,0;-39,2;4;34,0;46;146;1,4;0,0
27/08/2026;17:10:00;1009,0;-39,1;4;33,9;46;161;1,6;0,0
27/08/2026;17:15:00;1009,0;-39,1;4;33,7;45;164;1,4;0,0
27/08/2026;17:20:00;1009,1;-39,1;4;33,6;45;169;1,5;0,0
27/08/2026;17:25:00;1009,1;-39,1;4;33,5;44;148;1,8;0,0
27/08/2026;17:30:00;1009,1;-39,0;4;33,3;45;152;1,3;0,0
27/08/2026;17:35:00;1009,1;-39,0;4;33,2;46;142;1,7;0,0
27/08/2026;17:40:00;1009,2;-39,0;4;33,1;47;146;1,5;0,0
27/08/2026;17:45:00;1009,2;-38,9;4;33,0;48;143;1,8;0,0
27/08/2026;17:50:00;1009,2;-38,9;4;32,8;49;157;1,4;0,0
27/08/2026;17:55:00;1009,2;-38,9;4;32,7;49;158;1,3;0,0
27/08/2026;18:00:00;1009,2;-38,8;4;32,6;49;162;1,5;0,0
27/08/2026;18:05:00;1009,2;-38,8;4;32,5;50;167;1,3;0,0
27/08/2026;18:10:00;1009,2;-38,7;4;32,3;51;168;1,2;0,0
27/08/2026;18:15:00;1009,2;-38,7;4;32,2;52;169;1,4;0,0
27/08/2026;18:20:00;1009,2;-38,6;4;32,1;52;150;1,4;0,0
27/08/2026;18:25:00;1009,3;-38,5;4;31,9;53;155;1,4;0,0
27/08/2026;18:30:00;1009,3;-38,4;4;31,8;54;151;1,3;0,0
27/08/2026;18:35:00;1009,3;-38,3;4;31,7;54;145;1,2;0,0
27/08/2026;18:40:00;1009,3;-38,2;4;31,6;55;155;1,1;0,0
27/08/2026;18:45:00;1009,4;-38,0;4;31,4;56;151;1,2;0,0
27/08/2026;18:50:00;1009,4;-37,8;4;31,3;57;152;1,0;0,0
27/08/2026;18:55:00;1009,5;-37,7;4;31,2;57;138;1,4;0,0
27/08/2026;19:00:00;1009,6;-37,5;4;31,1;57;126;1,3;0,0
27/08/2026;19:05:00;1009,6;-37,3;4;31,0;58;131;1,3;0,0
27/08/2026;19:10:00;1009,7;-37,1;4;31,0;59;145;1,4;0,0
27/08/2026;19:15:00;1009,7;-36,9;4;30,9;59;156;1,5;0,0
27/08/2026;19:20:00;1009,8;-36,7;4;30,8;60;153;1,5;0,0
27/08/2026;19:25:00;1009,8;-36,6;4;30,7;61;149;1,2;0,0
27/08/2026;19:30:00;1009,9;-36,5;4;30,7;61;155;1,4;0,0
27/08/2026;19:35:00;1009,9;-36,4;4;30,6;62;168;1,0;0,0
27/08/2026;19:40:00;1009,9;-36,3;4;30,6;62;160;1,1;0,0
27/08/2026;19:45:00;1009,9;-36,2;4;30,5;63;171;1,2;0,0
27/08/2026;19:50:00;1010,0;-36,2;4;30,5;63;168;1,3;0,0
27/08/2026;19:55:00;1010,0;-36,1;3;30,4;63;194;0,7;0,0
27/08/2026;20:00:00;1010,0;-36,0;3;30,4;63;185;1,0;0,0
27/08/2026;20:05:00;1010,1;-35,9;3;30,4;64;161;0,9;0,0
27/08/2026;20:10:00;1010,2;-35,9;3;30,4;64;168;0,7;0,0
27/08/2026;20:15:00;1010,3;-35,8;4;30,3;65;167;0,8;0,0
27/08/2026;20:20:00;1010,3;-35,8;4;30,2;65;213;0,6;0,0
27/08/2026;20:25:00;1010,3;-35,7;4;30,2;65;219;0,5;0,0
27/08/2026;20:30:00;1010,3;-35,7;4;30,2;64;258;0,5;0,0
27/08/2026;20:35:00;1010,4;-35,7;4;30,1;65;189;0,6;0,0
27/08/2026;20:40:00;1010,5;-35,7;4;30,1;65;200;0,7;0,0
27/08/2026;20:45:00;1010,5;-35,7;4;30,0;65;191;0,8;0,0
27/08/2026;20:50:00;1010,6;-35,7;4;29,9;65;167;0,7;0,0
27/08/2026;20:55:00;1010,7;-35,8;4;29,8;64;168;1,1;0,0
27/08/2026;21:00:00;1010,7;-35,8;4;29,8;64;160;1,3;0,0
27/08/2026;21:05:00;1010,8;-35,8;4;29,7;64;151;1,5;0,0
27/08/2026;21:10:00;1010,9;-35,9;4;29,6;64;152;1,5;0,0
27/08/2026;21:15:00;1010,9;-35,9;4;29,6;64;168;1,0;0,0
27/08/2026;21:20:00;1011,0;-35,9;4;29,6;65;163;1,3;0,0
27/08/2026;21:25:00;1011,0;-35,9;4;29,5;65;181;1,0;0,0
27/08/2026;21:30:00;1011,1;-35,9;4;29,5;66;161;1,2;0,0
27/08/2026;21:35:00;1011,2;-35,9;4;29,5;66;157;1,1;0,0
27/08/2026;21:40:00;1011,3;-36,0;4;29,4;66;148;1,4;0,0
27/08/2026;21:45:00;1011,3;-36,0;4;29,3;66;158;1,3;0,0
27/08/2026;21:50:00;1011,4;-36,0;4;29,3;66;141;1,4;0,0
27/08/2026;21:55:00;1011,4;-36,0;4;29,2;67;153;1,2;0,0
27/08/2026;22:00:00;1011,4;-36,1;4;29,2;67;163;1,1;0,0
27/08/2026;22:05:00;1011,5;-36,1;4;29,2;67;173;0,9;0,0
27/08/2026;22:10:00;1011,6;-36,1;4;29,1;68;248;0,4;0,0
27/08/2026;22:15:00;1011,6;-36,1;4;29,1;67;349;0,5;0,0
27/08/2026;22:20:00;1011,6;-36,1;4;29,1;67;290;0,4;0,0
27/08/2026;22:25:00;1011,6;-36,1;4;29,1;67;345;0,4;0,0
27/08/2026;22:30:00;1011,7;-36,1;4;29,0;68;178;0,8;0,0
27/08/2026;22:35:00;1011,7;-36,1;4;29,0;68;202;0,6;0,0
27/08/2026;22:40:00;1011,6;-36,1;4;28,9;69;230;0,5;0,0
27/08/2026;22:45:00;1011,6;-36,1;4;28,9;69;294;0,4;0,0
27/08/2026;22:50:00;1011,5;-36,2;4;28,8;69;250;0,4;0,0
27/08/2026;22:55:00;1011,5;-36,1;4;28,8;69;229;0,4;0,0
